KE7MWT Weather Reports


Display with metric or nautical units.
time (UTC)temp
F
wind
direction
speed
MPH
gust
MPH
rain 1hr
in
rain 24hr
in
rain mn
in
humidity
%
barometer
mb
20260906143319 83 99 2.0 4.0 0.00 0.00 0.00 48 1016.1
20260906143007 82 84 2.0 4.0 0.00 0.00 0.00 53 1012.6
20260906142824 83 86 2.0 4.0 0.00 0.00 0.00 48 1016.0
20260906142333 82 93 2.0 4.0 0.00 0.00 0.00 50 1016.0
20260906141838 82 78 2.0 2.0 0.00 0.00 0.00 49 1015.9
20260906141509 81 81 1.0 2.0 0.00 0.00 0.00 53 1012.3
20260906141346 82 79 1.0 2.0 0.00 0.00 0.00 50 1015.7
20260906140830 81 86 1.0 2.0 0.00 0.00 0.00 52 1015.6
20260906140338 80 76 0.0 2.0 0.00 0.00 0.00 54 1015.5
20260906140028 79 75 1.0 2.0 0.00 0.00 0.00 57 1012.0
20260906135823 80 83 1.0 2.0 0.00 0.00 0.00 54 1015.5
20260906135316 79 68 1.0 1.0 0.00 0.00 0.00 57 1015.4
20260906134821 79 55 1.0 1.0 0.00 0.00 0.00 59 1015.4
20260906134525 78 55 0.0 1.0 0.00 0.00 0.00 64 1011.9
20260906134330 78 55 0.0 0.0 0.00 0.00 0.00 60 1015.3
20260906133815 78 55 0.0 0.0 0.00 0.00 0.00 60 1015.2
20260906133323 78 55 0.0 0.0 0.00 0.00 0.00 60 1015.2
20260906133007 77 55 0.0 2.0 0.00 0.00 0.00 64 1011.6
20260906132828 77 55 0.0 2.0 0.00 0.00 0.00 60 1015.1
20260906132319 77 55 0.0 2.0 0.00 0.00 0.00 62 1015.0
20260906131823 77 55 0.0 2.0 0.00 0.00 0.00 63 1015.0
20260906131515 76 55 0.0 0.0 0.00 0.00 0.00 67 1011.5
20260906131331 77 55 0.0 0.0 0.00 0.00 0.00 64 1015.1
20260906130837 77 55 0.0 0.0 0.00 0.00 0.00 63 1015.0
20260906130326 77 55 0.0 0.0 0.00 0.00 0.00 62 1014.8
20260906130015 77 55 0.0 1.0 0.00 0.00 0.00 64 1011.3
20260906125815 77 55 0.0 2.0 0.00 0.00 0.00 61 1014.8
20260906125324 77 55 0.0 2.0 0.00 0.00 0.00 61 1014.8
20260906124849 77 55 0.0 2.0 0.00 0.00 0.00 62 1014.9
20260906124523 77 55 0.0 2.0 0.00 0.00 0.00 64 1011.3
20260906124318 78 55 0.0 2.0 0.00 0.00 0.00 60 1014.8
20260906123824 78 55 1.0 2.0 0.00 0.00 0.00 61 1014.8
20260906123315 77 351 0.0 2.0 0.00 0.00 0.00 63 1014.7
20260906123028 77 331 0.0 1.0 0.00 0.00 0.00 65 1011.3
20260906122819 78 331 0.0 1.0 0.00 0.00 0.00 61 1014.8
20260906122328 78 331 0.0 1.0 0.00 0.00 0.00 61 1014.8
20260906121832 78 331 0.0 1.0 0.00 0.00 0.00 61 1014.8
20260906121508 77 331 0.0 0.0 0.00 0.00 0.00 64 1011.4
20260906121323 78 331 0.0 0.0 0.00 0.00 0.00 61 1014.8
20260906120847 77 331 0.0 0.0 0.00 0.00 0.00 61 1014.8
20260906120318 78 331 0.0 0.0 0.00 0.00 0.00 61 1014.8
20260906120014 77 331 0.0 0.0 0.00 0.00 0.00 64 1011.3
20260906115830 78 331 0.0 0.0 0.00 0.00 0.00 61 1014.8
20260906115338 78 331 0.0 0.0 0.00 0.00 0.00 60 1014.7
20260906114821 78 331 0.0 0.0 0.00 0.00 0.00 59 1014.7
20260906114521 78 331 0.0 0.0 0.00 0.00 0.00 62 1011.2
20260906114331 78 331 0.0 0.0 0.00 0.00 0.00 59 1014.7
20260906113837 78 331 0.0 0.0 0.00 0.00 0.00 60 1014.7
20260906113324 78 331 0.0 0.0 0.00 0.00 0.00 59 1014.7
20260906113027 78 331 0.0 0.0 0.00 0.00 0.00 62 1011.2
20260906112830 78 331 0.0 0.0 0.00 0.00 0.00 59 1014.7
20260906112321 78 331 0.0 0.0 0.00 0.00 0.00 57 1014.7
20260906111826 79 331 0.0 0.0 0.00 0.00 0.00 55 1014.7
20260906111529 78 331 0.0 0.0 0.00 0.00 0.00 58 1011.1
20260906111314 79 331 0.0 0.0 0.00 0.00 0.00 54 1014.6
20260906110818 79 331 0.0 0.0 0.00 0.00 0.00 54 1014.6
20260906110328 79 331 0.0 2.0 0.00 0.00 0.00 55 1014.6
20260906110009 79 331 0.0 2.0 0.00 0.00 0.00 60 1011.1
20260906105817 80 331 0.0 2.0 0.00 0.00 0.00 55 1014.6
20260906105325 80 331 0.0 1.0 0.00 0.00 0.00 54 1014.6
20260906104831 80 342 0.0 0.0 0.00 0.00 0.00 54 1014.6
20260906104532 79 342 0.0 0.0 0.00 0.00 0.00 58 1011.1
20260906104319 80 342 0.0 0.0 0.00 0.00 0.00 55 1014.6
20260906103823 80 342 0.0 0.0 0.00 0.00 0.00 56 1014.7
20260906103331 80 342 0.0 0.0 0.00 0.00 0.00 56 1014.7
20260906103024 80 342 0.0 0.0 0.00 0.00 0.00 57 1011.0
20260906102817 80 342 0.0 0.0 0.00 0.00 0.00 55 1014.6
20260906102345 80 342 0.0 2.0 0.00 0.00 0.00 56 1014.6
20260906101830 80 342 0.0 2.0 0.00 0.00 0.00 54 1014.6
20260906101527 80 349 0.0 2.0 0.00 0.00 0.00 58 1011.0
20260906101319 80 349 0.0 2.0 0.00 0.00 0.00 55 1014.6
20260906100844 80 349 0.0 0.0 0.00 0.00 0.00 55 1014.5
20260906100331 80 349 0.0 2.0 0.00 0.00 0.00 54 1014.6
20260906100028 80 349 0.0 2.0 0.00 0.00 0.00 57 1011.0
20260906095820 80 349 0.0 2.0 0.00 0.00 0.00 54 1014.5
20260906095330 80 349 0.0 2.0 0.00 0.00 0.00 55 1014.5
20260906094835 80 349 0.0 0.0 0.00 0.00 0.00 55 1014.4
20260906094530 80 349 0.0 0.0 0.00 0.00 0.00 58 1010.9
20260906094321 80 349 0.0 0.0 0.00 0.00 0.00 54 1014.4
20260906093825 80 349 0.0 2.0 0.00 0.00 0.00 55 1014.5
20260906093335 80 349 0.0 2.0 0.00 0.00 0.00 54 1014.5
20260906093034 80 349 0.0 2.0 0.00 0.00 0.00 57 1010.9
20260906092819 81 349 0.0 0.0 0.00 0.00 0.00 53 1014.5
20260906092327 81 349 0.0 0.0 0.00 0.00 0.00 54 1014.5
20260906091831 81 349 0.0 0.0 0.00 0.00 0.00 53 1014.5
20260906091527 80 349 0.0 0.0 0.00 0.00 0.00 58 1011.0
20260906091320 81 349 0.0 0.0 0.00 0.00 0.00 54 1014.5
20260906090826 81 349 0.0 0.0 0.00 0.00 0.00 54 1014.5
20260906090316 81 349 0.0 0.0 0.00 0.00 0.00 54 1014.5
20260906090031 80 349 0.0 0.0 0.00 0.00 0.00 57 1011.0
20260906085821 81 349 0.0 0.0 0.00 0.00 0.00 54 1014.6
20260906085314 81 349 0.0 2.0 0.00 0.00 0.00 53 1014.6
20260906084818 82 349 0.0 2.0 0.00 0.00 0.00 52 1014.7
20260906084545 81 349 0.0 2.0 0.00 0.00 0.00 56 1011.1
20260906084328 82 349 0.0 2.0 0.00 0.00 0.00 53 1014.6
20260906083833 81 349 0.0 0.0 0.00 0.00 0.00 53 1014.6
20260906083322 82 349 0.0 0.0 0.00 0.00 0.00 52 1014.7
20260906083018 81 349 0.0 0.0 0.00 0.00 0.00 56 1011.2
20260906082826 82 349 0.0 0.0 0.00 0.00 0.00 54 1014.7
20260906082315 82 349 0.0 0.0 0.00 0.00 0.00 53 1014.7
20260906081821 82 349 0.0 0.0 0.00 0.00 0.00 51 1014.8
20260906081524 82 349 0.0 0.0 0.00 0.00 0.00 54 1011.3
20260906081330 82 349 0.0 0.0 0.00 0.00 0.00 51 1014.8
20260906080818 82 349 0.0 0.0 0.00 0.00 0.00 51 1014.9
20260906080328 82 349 0.0 0.0 0.00 0.00 0.00 52 1014.9
20260906080034 81 349 0.0 2.0 0.00 0.00 0.00 55 1011.4
20260906075832 82 349 0.0 2.0 0.00 0.00 0.00 51 1014.9
20260906075342 83 349 0.0 2.0 0.00 0.00 0.00 50 1014.8
20260906074825 83 349 0.0 2.0 0.00 0.00 0.00 49 1014.8
20260906074533 82 349 0.0 1.0 0.00 0.00 0.00 52 1011.4
20260906074314 83 349 0.0 1.0 0.00 0.00 0.00 48 1014.8
20260906073818 83 349 0.0 2.0 0.00 0.00 0.00 46 1014.8
20260906073328 83 348 0.0 2.0 0.00 0.00 0.00 47 1014.9
20260906073016 83 335 0.0 2.0 0.00 0.00 0.00 50 1011.4
20260906072832 84 335 0.0 2.0 0.00 0.00 0.00 46 1014.9
20260906072321 84 335 0.0 2.0 0.00 0.00 0.00 46 1015.0
20260906071826 84 335 0.0 0.0 0.00 0.00 0.00 46 1014.9
20260906071521 83 335 0.0 0.0 0.00 0.00 0.00 49 1011.5
20260906071319 84 335 0.0 0.0 0.00 0.00 0.00 45 1015.0
20260906070824 84 335 0.0 0.0 0.00 0.00 0.00 45 1015.1
20260906070315 84 335 0.0 0.0 0.00 0.00 0.00 45 1015.0
20260906070032 84 335 0.0 0.0 0.00 0.00 0.00 48 1011.6
20260906065818 84 335 0.0 0.0 0.00 0.00 0.00 44 1015.0
20260906065347 85 335 0.0 2.0 0.00 0.00 0.00 44 1015.1
20260906064831 85 335 0.0 2.0 0.00 0.00 0.00 43 1015.1
20260906064533 85 335 0.0 2.0 0.00 0.00 0.00 47 1011.6
20260906064341 85 335 0.0 2.0 0.00 0.00 0.00 44 1015.1
20260906063825 86 335 0.0 2.0 0.00 0.00 0.00 42 1015.1
20260906063315 86 335 0.0 2.0 0.00 0.00 0.00 41 1015.1
20260906063032 85 333 0.0 2.0 0.00 0.00 0.00 45 1011.6
20260906062840 86 333 1.0 2.0 0.00 0.00 0.00 42 1015.1
20260906062327 85 323 0.0 2.0 0.00 0.00 0.00 43 1015.1
20260906061832 85 323 0.0 0.0 0.00 0.00 0.00 43 1015.1
20260906061518 85 323 0.0 0.0 0.00 0.00 0.00 47 1011.6
20260906061325 86 323 0.0 0.0 0.00 0.00 0.00 43 1015.1
20260906060851 86 323 0.0 1.0 0.00 0.00 0.00 42 1015.1
20260906060318 86 323 0.0 2.0 0.00 0.00 0.00 41 1015.1
20260906060034 86 323 0.0 2.0 0.00 0.00 0.00 45 1011.5
20260906055823 86 323 0.0 2.0 0.00 0.00 0.00 42 1015.1
20260906055332 87 323 0.0 0.0 0.00 0.00 0.00 41 1015.1
20260906054817 87 323 0.0 2.0 0.00 0.00 0.00 39 1015.1
20260906054532 87 323 0.0 2.0 0.00 0.00 0.00 42 1011.6
20260906054327 88 323 0.0 2.0 0.00 0.00 0.00 38 1015.1
20260906053831 88 323 0.0 2.0 0.00 0.00 0.00 38 1015.1
20260906053320 88 323 0.0 2.0 0.00 0.00 0.00 38 1015.0
20260906053033 87 325 0.0 2.0 0.00 0.00 0.00 42 1011.6
20260906052825 88 325 0.0 2.0 0.00 0.00 0.00 38 1015.1
20260906052318 88 325 0.0 2.0 0.00 0.00 0.00 38 1015.1
20260906051824 88 325 0.0 0.0 0.00 0.00 0.00 37 1015.1
20260906051531 88 325 0.0 0.0 0.00 0.00 0.00 41 1011.6
20260906051332 88 325 0.0 0.0 0.00 0.00 0.00 37 1015.1
20260906050818 88 325 0.0 2.0 0.00 0.00 0.00 37 1015.2
20260906050326 88 325 0.0 2.0 0.00 0.00 0.00 37 1015.2
20260906050026 88 325 0.0 2.0 0.00 0.00 0.00 40 1011.7
20260906045833 89 325 0.0 2.0 0.00 0.00 0.00 36 1015.2
20260906045321 89 325 0.0 2.0 0.00 0.00 0.00 35 1015.2
20260906044826 90 325 0.0 2.0 0.00 0.00 0.00 35 1015.2
20260906044526 90 325 0.0 2.0 0.00 0.00 0.00 37 1011.8
20260906044316 91 325 0.0 2.0 0.00 0.00 0.00 33 1015.3
20260906043821 91 324 0.0 2.0 0.00 0.00 0.00 33 1015.2
20260906043314 91 308 1.0 2.0 0.00 0.00 0.00 32 1015.2
20260906043032 91 316 1.0 3.0 0.00 0.00 0.00 35 1011.7
20260906042839 91 300 1.0 3.0 0.00 0.00 0.00 32 1015.2
20260906042328 92 328 0.0 3.0 0.00 0.00 0.00 32 1015.2
20260906041832 92 318 0.0 2.0 0.00 0.00 0.00 32 1015.2
20260906041512 91 313 0.0 3.0 0.00 0.00 0.00 35 1011.8
20260906041322 92 312 0.0 3.0 0.00 0.00 0.00 31 1015.2
20260906040847 92 315 1.0 3.0 0.00 0.00 0.00 31 1015.2
20260906040316 92 299 1.0 4.0 0.00 0.00 0.00 30 1015.2
20260906040017 92 323 1.0 4.0 0.00 0.00 0.00 34 1011.8
20260906035842 92 355 1.0 4.0 0.00 0.00 0.00 31 1015.2
20260906035349 93 340 0.0 4.0 0.00 0.00 0.00 30 1015.1
20260906034813 93 300 1.0 5.0 0.00 0.00 0.00 30 1015.1
20260906034526 92 284 2.0 5.0 0.00 0.00 0.00 34 1011.7
20260906034323 93 297 2.0 5.0 0.00 0.00 0.00 30 1015.1
20260906033827 93 331 1.0 3.0 0.00 0.00 0.00 30 1015.1
20260906033316 93 306 0.0 2.0 0.00 0.00 0.00 30 1015.0
20260906033014 92 352 1.0 2.0 0.00 0.00 0.00 34 1011.5
20260906032841 93 355 0.0 2.0 0.00 0.00 0.00 30 1014.9
20260906032333 93 336 1.0 2.0 0.00 0.00 0.00 29 1014.8
20260906031817 94 323 1.0 2.0 0.00 0.00 0.00 29 1014.8
20260906031513 93 283 1.0 4.0 0.00 0.00 0.00 32 1011.3
20260906031346 94 332 1.0 4.0 0.00 0.00 0.00 29 1014.7
20260906030830 94 319 1.0 4.0 0.00 0.00 0.00 29 1014.8
20260906030321 94 325 1.0 4.0 0.00 0.00 0.00 28 1014.7
20260906030013 94 284 2.0 5.0 0.00 0.00 0.00 32 1011.2
20260906025825 94 335 2.0 5.0 0.00 0.00 0.00 28 1014.6
20260906025313 94 304 2.0 5.0 0.00 0.00 0.00 28 1014.6
20260906024820 94 297 2.0 4.0 0.00 0.00 0.00 28 1014.6
20260906024513 94 301 1.0 7.0 0.00 0.00 0.00 31 1011.1
20260906024331 95 289 2.0 7.0 0.00 0.00 0.00 28 1014.6
20260906023818 95 321 3.0 7.0 0.00 0.00 0.00 27 1014.4
20260906023313 95 302 1.0 6.0 0.00 0.00 0.00 27 1014.4
20260906023015 94 344 2.0 6.0 0.00 0.00 0.00 31 1010.9
20260906022821 95 303 2.0 6.0 0.00 0.00 0.00 27 1014.3
20260906022351 95 297 1.0 7.0 0.00 0.00 0.00 27 1014.2
20260906021816 96 324 2.0 7.0 0.00 0.00 0.00 27 1014.2
20260906021511 95 301 3.0 7.0 0.00 0.00 0.00 30 1010.8
20260906021327 95 351 3.0 7.0 0.00 0.00 0.00 27 1014.3
20260906020814 96 313 3.0 8.0 0.00 0.00 0.00 27 1014.2
20260906020325 96 296 2.0 8.0 0.00 0.00 0.00 27 1014.3
20260906020015 96 296 2.0 9.0 0.00 0.00 0.00 30 1010.8
20260906015852 96 283 2.0 10.0 0.00 0.00 0.00 27 1014.3
20260906015322 96 263 3.0 10.0 0.00 0.00 0.00 26 1014.3
20260906014830 96 283 3.0 11.0 0.00 0.00 0.00 26 1014.3
20260906014525 96 313 4.0 11.0 0.00 0.00 0.00 30 1010.9
20260906014321 96 333 5.0 11.0 0.00 0.00 0.00 26 1014.4
20260906013813 97 314 1.0 8.0 0.00 0.00 0.00 27 1014.4
20260906013324 97 265 2.0 9.0 0.00 0.00 0.00 26 1014.4
20260906013015 97 265 5.0 9.0 0.00 0.00 0.00 29 1010.9
20260906012832 97 287 4.0 9.0 0.00 0.00 0.00 26 1014.4
20260906012323 97 319 2.0 9.0 0.00 0.00 0.00 26 1014.4
20260906011850 97 297 4.0 11.0 0.00 0.00 0.00 26 1014.5
20260906011505 97 298 6.0 11.0 0.00 0.00 0.00 28 1011.0
20260906011319 98 296 4.0 11.0 0.00 0.00 0.00 25 1014.5
20260906010847 98 278 3.0 12.0 0.00 0.00 0.00 25 1014.5
20260906010338 99 289 6.0 11.0 0.00 0.00 0.00 25 1014.5
20260906010011 98 278 6.0 11.0 0.00 0.00 0.00 28 1011.0
20260906005823 99 253 4.0 10.0 0.00 0.00 0.00 25 1014.4
20260906005315 99 315 4.0 10.0 0.00 0.00 0.00 25 1014.5
20260906004821 100 360 5.0 10.0 0.00 0.00 0.00 24 1014.5
20260906004531 99 304 3.0 10.0 0.00 0.00 0.00 28 1010.9
20260906004316 100 302 4.0 10.0 0.00 0.00 0.00 24 1014.4
20260906003844 100 329 4.0 10.0 0.00 0.00 0.00 25 1014.5
20260906003314 100 319 4.0 10.0 0.00 0.00 0.00 25 1014.5
20260906003014 100 343 4.0 10.0 0.00 0.00 0.00 28 1011.0
20260906002821 100 333 4.0 10.0 0.00 0.00 0.00 25 1014.4
20260906002332 101 291 4.0 10.0 0.00 0.00 0.00 24 1014.4
20260906001820 101 310 4.0 9.0 0.00 0.00 0.00 24 1014.4
20260906001518 100 265 4.0 9.0 0.00 0.00 0.00 28 1011.0
20260906001329 101 322 4.0 9.0 0.00 0.00 0.00 25 1014.3
20260906000816 101 276 4.0 12.0 0.00 0.00 0.00 25 1014.3
20260906000327 101 263 5.0 12.0 0.00 0.00 0.00 24 1014.3
20260906000010 101 255 2.0 12.0 0.00 0.00 0.00 28 1010.8
20260905235818 102 314 1.0 12.0 0.00 0.00 0.00 25 1014.2
20260905235329 102 306 7.0 12.0 0.00 0.00 0.00 25 1014.2
20260905234816 102 329 3.0 8.0 0.00 0.00 0.00 26 1014.2
20260905234512 101 333 4.0 8.0 0.00 0.00 0.00 29 1010.8
20260905234325 102 311 3.0 8.0 0.00 0.00 0.00 25 1014.2
20260905233833 102 307 2.0 9.0 0.00 0.00 0.00 26 1014.2
20260905233320 102 245 5.0 11.0 0.00 0.00 0.00 26 1014.2
20260905233016 102 245 7.0 14.0 0.00 0.00 0.00 29 1010.8
20260905232827 102 280 3.0 14.0 0.00 0.00 0.00 26 1014.2
20260905232317 102 242 4.0 14.0 0.00 0.00 0.00 26 1014.2
20260905231823 103 296 6.0 10.0 0.00 0.00 0.00 26 1014.2
20260905231520 102 259 5.0 11.0 0.00 0.00 0.00 30 1010.7
20260905231318 103 236 4.0 11.0 0.00 0.00 0.00 26 1014.2
20260905230825 102 263 4.0 8.0 0.00 0.00 0.00 26 1014.3
20260905230317 103 12 3.0 11.0 0.00 0.00 0.00 26 1014.3
20260905230019 103 315 3.0 11.0 0.00 0.00 0.00 30 1010.8
20260905225824 103 300 3.0 11.0 0.00 0.00 0.00 27 1014.3
20260905225315 103 342 4.0 10.0 0.00 0.00 0.00 26 1014.3
20260905224822 103 252 6.0 10.0 0.00 0.00 0.00 26 1014.3
20260905224522 103 262 3.0 8.0 0.00 0.00 0.00 30 1010.8
20260905224354 103 291 4.0 7.0 0.00 0.00 0.00 27 1014.3
20260905223818 102 263 4.0 10.0 0.00 0.00 0.00 27 1014.3
20260905223349 103 13 4.0 9.0 0.00 0.00 0.00 27 1014.3
20260905223017 102 297 5.0 9.0 0.00 0.00 0.00 30 1010.9
20260905222816 103 284 4.0 9.0 0.00 0.00 0.00 26 1014.4
20260905222327 102 355 2.0 6.0 0.00 0.00 0.00 27 1014.5
20260905221818 102 286 2.0 7.0 0.00 0.00 0.00 26 1014.6
20260905221520 102 102 1.0 7.0 0.00 0.00 0.00 30 1011.1
20260905221329 102 96 2.0 7.0 0.00 0.00 0.00 26 1014.7
20260905220817 102 178 2.0 6.0 0.00 0.00 0.00 26 1014.8
20260905220328 102 231 3.0 14.0 0.00 0.00 0.00 27 1014.8
20260905220023 102 261 4.0 14.0 0.00 0.00 0.00 30 1011.4
20260905215815 102 201 7.0 14.0 0.00 0.00 0.00 27 1014.9
20260905215327 103 242 4.0 7.0 0.00 0.00 0.00 27 1014.8
20260905214813 102 345 2.0 6.0 0.00 0.00 0.00 27 1015.0
20260905214508 102 260 3.0 7.0 0.00 0.00 0.00 31 1011.5
20260905214324 102 360 3.0 6.0 0.00 0.00 0.00 27 1015.0
20260905213816 102 164 1.0 8.0 0.00 0.00 0.00 28 1015.1
20260905213347 102 309 2.0 8.0 0.00 0.00 0.00 27 1015.2
20260905213028 101 286 4.0 10.0 0.00 0.00 0.00 31 1011.8
20260905212813 101 318 2.0 10.0 0.00 0.00 0.00 27 1015.3
20260905212324 102 248 6.0 19.0 0.00 0.00 0.00 27 1015.3
20260905211832 102 246 5.0 15.0 0.00 0.00 0.00 28 1015.3
20260905211519 102 260 2.0 8.0 0.00 0.00 0.00 30 1011.9
20260905211321 103 13 3.0 8.0 0.00 0.00 0.00 26 1015.4
20260905210847 102 16 4.0 8.0 0.00 0.00 0.00 27 1015.6
20260905210318 102 271 3.0 6.0 0.00 0.00 0.00 27 1015.6
20260905210022 102 336 3.0 6.0 0.00 0.00 0.00 30 1012.2
20260905205824 102 17 3.0 6.0 0.00 0.00 0.00 27 1015.6
20260905205315 101 87 2.0 9.0 0.00 0.00 0.00 27 1015.6
20260905204822 102 299 5.0 9.0 0.00 0.00 0.00 27 1015.7
20260905204522 101 275 4.0 9.0 0.00 0.00 0.00 32 1012.4
20260905204317 101 234 5.0 8.0 0.00 0.00 0.00 28 1015.9
20260905203823 101 302 4.0 8.0 0.00 0.00 0.00 27 1015.9
20260905203314 101 205 3.0 8.0 0.00 0.00 0.00 27 1016.0
20260905203009 101 269 1.0 8.0 0.00 0.00 0.00 30 1012.7
20260905202822 102 295 4.0 8.0 0.00 0.00 0.00 27 1016.2
20260905202330 101 300 2.0 5.0 0.00 0.00 0.00 27 1016.2
20260905201816 101 355 1.0 5.0 0.00 0.00 0.00 28 1016.2
20260905201516 100 89 2.0 10.0 0.00 0.00 0.00 31 1012.8
20260905201327 100 360 1.0 10.0 0.00 0.00 0.00 28 1016.3
20260905200834 101 294 5.0 10.0 0.00 0.00 0.00 27 1016.4
20260905200325 101 251 2.0 6.0 0.00 0.00 0.00 28 1016.4
20260905200023 100 191 4.0 6.0 0.00 0.00 0.00 31 1013.0
20260905195815 101 180 2.0 5.0 0.00 0.00 0.00 28 1016.4
20260905195326 100 263 3.0 5.0 0.00 0.00 0.00 28 1016.5
20260905194813 101 199 0.0 3.0 0.00 0.00 0.00 28 1016.5
20260905194524 100 92 2.0 5.0 0.00 0.00 0.00 31 1013.1
20260905194323 100 171 1.0 5.0 0.00 0.00 0.00 27 1016.6
20260905193830 101 196 1.0 4.0 0.00 0.00 0.00 27 1016.7
20260905193341 100 298 2.0 4.0 0.00 0.00 0.00 28 1016.8
20260905193023 99 336 2.0 5.0 0.00 0.00 0.00 31 1013.4
20260905192847 100 333 2.0 4.0 0.00 0.00 0.00 27 1016.9
20260905192317 100 265 2.0 4.0 0.00 0.00 0.00 28 1016.9
20260905191825 99 289 2.0 9.0 0.00 0.00 0.00 28 1017.0
20260905191514 99 232 2.0 9.0 0.00 0.00 0.00 31 1013.5
20260905191316 100 217 4.0 9.0 0.00 0.00 0.00 27 1017.1
20260905190824 99 197 4.0 8.0 0.00 0.00 0.00 28 1017.1
20260905190320 99 257 3.0 7.0 0.00 0.00 0.00 28 1017.2
20260905190020 98 236 1.0 4.0 0.00 0.00 0.00 32 1013.7
20260905185826 98 265 0.0 3.0 0.00 0.00 0.00 27 1017.3
20260905185337 98 355 1.0 4.0 0.00 0.00 0.00 28 1017.4
20260905184843 98 192 2.0 5.0 0.00 0.00 0.00 28 1017.4
20260905184527 97 163 2.0 5.0 0.00 0.00 0.00 32 1014.0
20260905184313 97 263 2.0 5.0 0.00 0.00 0.00 28 1017.5
20260905183821 99 217 2.0 5.0 0.00 0.00 0.00 28 1017.5
20260905183332 98 293 2.0 4.0 0.00 0.00 0.00 29 1017.6
20260905183024 98 30 2.0 4.0 0.00 0.00 0.00 32 1014.2
20260905182818 98 202 1.0 4.0 0.00 0.00 0.00 29 1017.7
20260905182329 98 259 2.0 4.0 0.00 0.00 0.00 29 1017.7
20260905181816 98 257 2.0 4.0 0.00 0.00 0.00 29 1017.7
20260905181533 96 42 2.0 4.0 0.00 0.00 0.00 32 1014.3
20260905181347 97 32 1.0 3.0 0.00 0.00 0.00 29 1017.8
20260905180817 96 277 1.0 5.0 0.00 0.00 0.00 29 1017.9
20260905180328 97 212 2.0 5.0 0.00 0.00 0.00 29 1017.9
20260905180017 96 186 3.0 7.0 0.00 0.00 0.00 34 1014.5
20260905175815 96 216 2.0 7.0 0.00 0.00 0.00 31 1017.9
20260905175326 96 173 2.0 7.0 0.00 0.00 0.00 31 1017.9
20260905174853 96 179 1.0 4.0 0.00 0.00 0.00 29 1017.9
20260905174524 95 309 1.0 4.0 0.00 0.00 0.00 33 1014.5
20260905174323 96 212 2.0 4.0 0.00 0.00 0.00 31 1018.0
20260905173831 96 224 2.0 4.0 0.00 0.00 0.00 30 1017.9
20260905173322 96 331 1.0 3.0 0.00 0.00 0.00 29 1017.9
20260905173028 95 309 1.0 4.0 0.00 0.00 0.00 34 1014.4
20260905172829 95 331 1.0 4.0 0.00 0.00 0.00 30 1017.9
20260905172340 95 340 2.0 4.0 0.00 0.00 0.00 30 1017.9
20260905171827 95 360 1.0 2.0 0.00 0.00 0.00 29 1017.9
20260905171526 95 19 1.0 3.0 0.00 0.00 0.00 33 1014.5
20260905171342 96 336 1.0 5.0 0.00 0.00 0.00 29 1018.0
20260905170828 95 32 1.0 5.0 0.00 0.00 0.00 31 1017.9
20260905170319 93 124 1.0 2.0 0.00 0.00 0.00 33 1017.9
20260905170016 92 197 1.0 2.0 0.00 0.00 0.00 37 1014.5
20260905165827 93 191 1.0 2.0 0.00 0.00 0.00 33 1018.0
20260905165318 93 155 0.0 2.0 0.00 0.00 0.00 35 1018.0
20260905164824 92 261 1.0 4.0 0.00 0.00 0.00 34 1018.0
20260905164528 91 217 1.0 4.0 0.00 0.00 0.00 39 1014.5
20260905164315 92 259 1.0 4.0 0.00 0.00 0.00 34 1018.0
20260905163823 92 290 2.0 4.0 0.00 0.00 0.00 35 1018.0
20260905163314 92 278 1.0 3.0 0.00 0.00 0.00 34 1017.9
20260905163029 91 273 2.0 3.0 0.00 0.00 0.00 38 1014.4
20260905162841 92 274 1.0 2.0 0.00 0.00 0.00 34 1017.9
20260905162315 92 45 0.0 3.0 0.00 0.00 0.00 34 1017.9
20260905161823 91 282 1.0 3.0 0.00 0.00 0.00 34 1017.9
20260905161530 91 288 0.0 3.0 0.00 0.00 0.00 38 1014.5
20260905161314 91 355 1.0 3.0 0.00 0.00 0.00 34 1018.0
20260905160821 91 136 1.0 2.0 0.00 0.00 0.00 36 1018.0
20260905160352 91 278 1.0 3.0 0.00 0.00 0.00 36 1018.0
20260905160039 91 101 0.0 3.0 0.00 0.00 0.00 39 1014.5
20260905155817 91 101 1.0 3.0 0.00 0.00 0.00 38 1017.9
20260905155328 91 64 2.0 3.0 0.00 0.00 0.00 38 1017.8
20260905154815 90 88 1.0 3.0 0.00 0.00 0.00 39 1017.7
20260905154518 89 136 0.0 3.0 0.00 0.00 0.00 43 1014.3
20260905154326 89 82 1.0 3.0 0.00 0.00 0.00 39 1017.8
20260905153813 88 113 0.0 2.0 0.00 0.00 0.00 44 1017.7
20260905153344 88 118 0.0 2.0 0.00 0.00 0.00 44 1017.6
20260905153024 87 118 0.0 2.0 0.00 0.00 0.00 47 1014.3
20260905152850 87 118 0.0 2.0 0.00 0.00 0.00 44 1017.7
20260905152340 88 118 0.0 2.0 0.00 0.00 0.00 44 1017.7
20260905151830 88 121 0.0 2.0 0.00 0.00 0.00 44 1017.5
20260905151529 88 91 0.0 2.0 0.00 0.00 0.00 48 1014.1
20260905151321 88 91 0.0 2.0 0.00 0.00 0.00 44 1017.5
20260905150828 87 96 0.0 2.0 0.00 0.00 0.00 46 1017.5
20260905150320 87 96 1.0 2.0 0.00 0.00 0.00 47 1017.5
20260905150032 86 93 0.0 2.0 0.00 0.00 0.00 51 1014.1
20260905145848 86 116 1.0 2.0 0.00 0.00 0.00 47 1017.5
20260905145316 85 93 1.0 2.0 0.00 0.00 0.00 49 1017.5
20260905144823 84 96 0.0 1.0 0.00 0.00 0.00 50 1017.5
20260905144535 83 91 1.0 1.0 0.00 0.00 0.00 55 1014.1
20260905144314 83 87 1.0 1.0 0.00 0.00 0.00 52 1017.5
20260905143821 83 90 0.0 2.0 0.00 0.00 0.00 54 1017.5